Theta_e
334 330 331 331 329 328 328 329 331 331 332 332 332 331 332 329 328 329 327 328 327 325
335 334 331 333 335 330 333 330 331 332 332 332 333 333 333 329 330 330 330 331 331 330
336 335 334 335 335 334 335 335 334 333 333 333 333 333 334 333 332 331 332 331 330 330
336 335 335 334 334 334 335 335 334 333 333 333 333 334 334 334 333 330 330 331 329 328
337 336 336 335 335 336 335 335 334 333 332 331 332 333 332 330 330 328 328 327 327 326
335 335 335 336 336 336 335 334 333 332 331 331 331 331 331 329 328 327 327 326 324 324
333 332 334 334 334 334 334 333 332 333 333 332 330 328 327 328 328 327 326 326 325 323
332 333 333 333 333 333 333 333 333 331 330 329 319 312 316 320 323 322 321 320 319 319
332 331 332 332 332 334 333 331 329 328 324 321 313 303 304 311 320 319 318 317 319 319
331 330 333 333 332 329 329 329 327 325 323 320 316 302 301 305 319 318 318 317 317 316
332 330 330 328 326 327 328 326 324 322 322 321 315 301 300 303 318 318 317 317 317 315
328 326 323 322 324 326 325 323 322 321 320 318 318 301 300 306 315 315 315 316 317 315
322 320 321 322 323 325 325 322 320 319 319 310 317 300 300 304 311 312 312 316 317 305
321 321 322 323 325 324 323 322 320 317 317 317 316 314 301 300 311 310 311 311 311 312
Wind_Speed
6 5 4 4 5 4 4 3 3 5 6 7 8 8 9 9 9 10 10 13 12 11
6 6 4 4 5 3 3 4 5 6 8 9 10 10 10 10 11 11 11 12 11 10
6 7 7 6 7 6 6 7 8 9 9 10 10 11 11 11 12 11 10 10 13 13
6 7 7 7 7 7 7 8 9 10 10 11 11 11 11 13 14 15 14 14 14 14
6 7 7 7 8 8 8 8 9 10 10 11 11 11 12 13 14 14 14 13 14 14
5 5 5 6 6 7 7 9 9 9 9 9 9 10 10 10 11 11 12 12 11 13
2 0 2 3 5 5 6 7 7 6 7 7 8 12 12 11 10 10 11 12 12 13
3 3 3 3 4 5 5 5 6 6 6 8 10 9 11 11 9 10 11 12 12 12
2 4 3 3 4 5 6 6 6 7 9 8 8 9 11 11 10 11 11 12 12 13
3 2 4 5 6 6 6 6 7 7 6 7 10 10 12 13 9 9 10 11 11 12
5 6 6 6 6 5 5 5 5 5 6 6 8 9 12 18 10 9 12 11 12 12
6 5 5 6 5 4 3 4 4 4 5 8 8 8 12 16 12 11 12 9 9 9
6 5 5 5 4 3 2 3 2 4 5 4 8 10 10 12 11 11 11 11 10 10
5 4 4 3 3 3 1 2 4 5 4 5 5 5 7 7 11 9 11 11 11 11
Wind_Direction
213 232 242 214 316 310 330 316 337 282 278 278 279 281 281 273 273 285 277 278 275 280
216 237 274 276 260 279 296 287 256 278 282 285 285 283 282 272 279 279 276 276 275 271
222 235 244 252 261 282 281 272 280 284 284 284 282 280 278 280 280 277 278 280 284 287
236 243 250 259 265 268 272 276 280 284 283 283 284 284 283 283 285 288 293 297 296 295
245 252 260 267 270 269 273 282 285 287 288 292 295 296 294 299 306 309 313 310 315 315
234 255 270 272 268 270 281 287 297 305 306 313 320 320 322 320 325 324 323 323 323 312
196 160 277 270 274 291 302 310 317 332 336 352 355 8 350 341 337 336 337 335 327 325
188 248 283 305 319 331 340 354 357 10 26 34 42 25 354 342 345 337 333 332 331 337
292 302 337 5 16 19 30 25 26 44 62 52 53 350 340 327 333 338 341 336 338 333
349 10 26 35 38 39 44 56 60 62 67 67 32 353 330 321 333 339 347 344 337 341
20 28 40 49 53 57 62 71 72 63 40 21 57 7 345 332 349 352 346 345 355 349
30 25 42 63 66 57 84 93 75 45 33 10 34 31 359 345 334 355 342 341 345 341
34 50 62 67 60 84 103 64 35 23 20 77 3 64 16 357 336 351 335 333 345 125
75 80 72 73 104 129 58 20 355 2 348 12 23 30 43 359 340 350 328 329 346 350